N0MDC Weather Reports


time (UTC)temp
C
wind
direction
speed
KPH
gust
KPH
rain 1hr
cm
rain 24hr
cm
rain mn
cm
humidity
%
barometer
mb
20260504081513 12 214 1.6 11.3 0.00 0.00 0.00 35 1000.4
20260504044511 12 197 1.6 4.8 0.00 0.00 0.00 34 1003.8
20260504043024 12 198 0.0 3.2 0.00 0.00 0.00 34 1004.0
20260504041521 12 245 0.0 3.2 0.00 0.00 0.00 33 1004.3
20260504040024 12 246 0.0 1.6 0.00 0.00 0.00 32 1004.7
20260504034528 12 246 0.0 3.2 0.00 0.00 0.00 31 1004.8
20260504033029 13 246 0.0 0.0 0.00 0.00 0.00 30 1005.0
20260504031519 13 246 1.6 4.8 0.00 0.00 0.00 31 1005.1
20260504030021 14 250 0.0 3.2 0.00 0.00 0.00 30 1005.3
20260504024524 15 250 0.0 0.0 0.00 0.00 0.00 28 1005.5
20260504023028 15 250 0.0 0.0 0.00 0.00 0.00 25 1005.5
20260504021533 16 250 0.0 0.0 0.00 0.00 0.00 23 1005.5
20260504020017 16 250 0.0 3.2 0.00 0.00 0.00 23 1005.6
20260504014504 17 246 0.0 4.8 0.00 0.00 0.00 22 1005.5
20260504013008 17 240 3.2 11.3 0.00 0.00 0.00 21 1005.5
20260504011510 18 275 3.2 11.3 0.00 0.00 0.00 20 1005.5
20260504010003 18 273 4.8 16.1 0.00 0.00 0.00 18 1005.5
20260504004509 19 239 4.8 17.7 0.00 0.00 0.00 17 1005.5
20260504003006 19 347 3.2 11.3 0.00 0.00 0.00 17 1005.6
20260504001507 20 37 0.0 14.5 0.00 0.00 0.00 17 1005.7
20260504000011 20 280 3.2 19.3 0.00 0.00 0.00 14 1005.7
20260503234503 21 277 3.2 19.3 0.00 0.00 0.00 14 1005.7
20260503233004 21 248 3.2 17.7 0.00 0.00 0.00 14 1005.8
20260503231504 21 257 3.2 22.5 0.00 0.00 0.00 15 1005.9
20260503230011 21 279 3.2 20.9 0.00 0.00 0.00 14 1005.9
20260503224515 21 264 6.4 20.9 0.00 0.00 0.00 14 1005.8
20260503223030 21 5 6.4 19.3 0.00 0.00 0.00 14 1005.9
20260503221505 21 264 9.7 20.9 0.00 0.00 0.00 14 1005.7
20260503220009 21 336 9.7 22.5 0.00 0.00 0.00 15 1005.7
20260503214533 21 282 6.4 22.5 0.00 0.00 0.00 14 1005.8
20260503213021 21 265 3.2 24.1 0.00 0.00 0.00 16 1005.9
20260503211523 21 334 6.4 22.5 0.00 0.00 0.00 15 1006.1
20260503210008 21 344 6.4 22.5 0.00 0.00 0.00 16 1006.1
20260503204510 21 298 4.8 27.4 0.00 0.00 0.00 16 1006.4
20260503203016 21 335 6.4 24.1 0.00 0.00 0.00 17 1006.5
20260503201521 21 5 11.3 35.4 0.00 0.00 0.00 18 1006.7
20260503200033 21 301 8.0 27.4 0.00 0.00 0.00 16 1006.7
20260503194506 21 13 4.8 20.9 0.00 0.00 0.00 20 1006.8
20260503193015 20 11 9.7 38.6 0.00 0.00 0.00 17 1006.8
20260503191519 20 360 11.3 32.2 0.00 0.00 0.00 18 1007.0
20260503190022 20 18 8.0 24.1 0.00 0.00 0.00 21 1006.9
20260503184533 20 11 12.9 33.8 0.00 0.00 0.00 20 1007.0
20260503183011 20 319 11.3 25.7 0.00 0.00 0.00 20 1007.0
20260503181516 19 231 6.4 29.0 0.00 0.00 0.00 22 1007.2
20260503180041 19 337 9.7 25.7 0.00 0.00 0.00 22 1007.3
20260503174531 19 342 3.2 33.8 0.00 0.00 0.00 25 1007.4
20260503173039 18 299 11.3 29.0 0.00 0.00 0.00 24 1007.4
20260503171510 18 295 8.0 24.1 0.00 0.00 0.00 26 1007.4